Back to catalog

CZ-6A DEB

AlivePO
NORAD 60884·DEBRIS·🇨🇳 China

Launched Aug 6, 2024 from Taiyuan Satellite Launch Center

Loading…

Next Passes (next 24 hours)

TLE

FreshSource: Space-Track

Epoch: Sep 14, 2026, 11:23 UTC

1 60884U 24140KP  26257.47441911  .00000616  00000-0  36880-3 0  9991
2 60884  89.0585 272.9887 0135825 316.5645  42.4895 14.01523234105867

Track CZ-6A DEB in real time with AllMySat

Download on the App Store